Location: Sihaung
(22.8641°N, 94.0549°E)
Time: 17:55:03
(UTC+00:00)

Meteor 1-31 Rocket - Pass Details

Date: 03 March 2021
Orbit: 519 x 547 km, 97.7° (Epoch: 13 April)

Event Time Altitude Azimuth Distance (km) Brightness Sun altitude
Rises 22:37:09 0° 6° (N) 2,678 6.4 -20.5°
Reaches altitude 10° 22:39:17 10° 3° (N) 1,780 5.5 -20.1°
Maximum altitude 22:43:04 62° 283° (WNW) 596 2.6 -19.2°
Enters shadow 22:44:58 27° 211° (SSW) 1,024 3.9 -18.7°
